Colorado Springs, CO

5:52 AM MDT on July 23, 2017 (GMT -0600)
City Of Colorado Springs Municipal

Weather History for KCOS - March, 2014

Change the Weather History Date:

Friday, March 7, 2014

  Actual Average Record
Temperature  
Mean Temperature 43 °F 37 °F  
Max Temperature 54 °F 50 °F 70 °F (1925)
Min Temperature 32 °F 24 °F -11 °F (1920)
Degree Days  
Heating Degree Days 22 28  
Month to date heating degree days 212 203  
Since 1 July heating degree days 4699 4766  
Cooling Degree Days 0 0  
Month to date cooling degree days 0 0  
Year to date cooling degree days 0 0  
Moisture  
Dew Point 27 °F    
Average Humidity 54    
Maximum Humidity 89    
Minimum Humidity 18    
Precipitation  
Precipitation 0.29 in 0.03 in 0.59 in (1964)
Month to date precipitation 0.32 0.19  
Year to date precipitation 1.21 0.85  
Snow  
Snow 1.50 in 0.20 in 13.30 in (1964)
Month to date snowfall 1.8 1.6  
Since 1 July snowfall 25.9 25.6  
Snow Depth 0.00 in    
Sea Level Pressure  
Sea Level Pressure 29.89 in    
Wind  
Wind Speed 12 mph (North)    
Max Wind Speed 23 mph    
Max Gust Speed 28 mph    
Visibility 6 miles    
Events Rain , Snow    
T = Trace of Precipitation, MM = Missing Value Source: NWS Daily Summary

Daily Weather History Graph

Daily Weather History Graph

Search for Another Location

Airport or City:

Trip Planner

Search our weather history database for the weather conditions in past years. The results will help you decide how hot, cold, wet, or windy it might be!

Date:

Astronomy

Mar. 07, 2014 Rise Set
Actual Time 6:22 AM MST 5:57 PM MST
Civil Twilight 5:55 AM MST 6:24 PM MST
Nautical Twilight 5:24 AM MST 6:55 PM MST
Astronomical Twilight 4:53 AM MST 7:26 PM MST
Moon 10:20 AM MST (3/7) 12:01 AM MST (3/7)
Length of Visible Light 12h 28m
Length of Day
11h 35m
Waxing Crescent, 42% of the Moon is Illuminated
Mar 7
Waxing Crescent
Mar 8
First Quarter
Mar 16
Full
Mar 23
Last Quarter
Mar 30
New

Hourly Weather History & Observations

Time (MST) Temp. Windchill Dew Point Humidity Pressure Visibility Wind Dir Wind Speed Gust Speed Precip Events Conditions
12:54 AM 53.1 °F - 12.9 °F 20% 29.62 in 10.0 mi NNW 16.1 mph 23.0 mph N/A   Overcast
1:54 AM 52.0 °F - 14.0 °F 22% 29.61 in 10.0 mi NNW 12.7 mph 23.0 mph N/A   Overcast
2:54 AM 51.1 °F - 15.1 °F 24% 29.63 in 10.0 mi North 12.7 mph - N/A   Mostly Cloudy
3:08 AM 50.0 °F - 14.0 °F 24% 29.80 in 10.0 mi NNE 15.0 mph - N/A   Mostly Cloudy
3:54 AM 46.9 °F - 16.0 °F 29% 29.67 in 10.0 mi North 10.4 mph - N/A   Mostly Cloudy
4:54 AM 46.9 °F - 18.0 °F 32% 29.69 in 10.0 mi North 11.5 mph - N/A   Overcast
5:54 AM 46.0 °F 42.5 °F 19.0 °F 34% 29.73 in 10.0 mi NW 6.9 mph - N/A   Overcast
6:54 AM 44.1 °F 40.1 °F 21.9 °F 42% 29.78 in 10.0 mi NNE 6.9 mph - N/A   Mostly Cloudy
7:54 AM 46.9 °F - 27.0 °F 46% 29.77 in 10.0 mi NNW 11.5 mph - N/A   Overcast
8:54 AM 48.9 °F - 28.0 °F 44% 29.81 in 10.0 mi NNE 10.4 mph - N/A   Mostly Cloudy
9:54 AM 48.9 °F - 28.9 °F 46% 29.82 in 10.0 mi ENE 10.4 mph - N/A   Mostly Cloudy
10:54 AM 46.9 °F - 30.0 °F 52% 29.79 in 10.0 mi East 16.1 mph - N/A   Mostly Cloudy
11:54 AM 45.0 °F 38.9 °F 30.0 °F 56% 29.79 in 10.0 mi East 12.7 mph - 0.00 in Rain Light Rain
12:54 PM 43.0 °F 35.1 °F 32.0 °F 65% 29.80 in 10.0 mi NE 17.3 mph - 0.00 in   Overcast
1:54 PM 39.9 °F 32.1 °F 35.1 °F 83% 29.82 in 4.0 mi NNE 13.8 mph - 0.02 in Rain Light Rain
2:48 PM 37.4 °F 28.9 °F 33.8 °F 87% 29.90 in 2.5 mi NNE 13.8 mph - 0.04 in Rain Light Rain
2:54 PM 37.0 °F 29.8 °F 34.0 °F 89% 29.87 in 2.5 mi North 10.4 mph - 0.05 in Rain Light Rain
3:05 PM 37.0 °F 29.8 °F 33.1 °F 86% 29.92 in 2.5 mi North 10.4 mph - 0.02 in Rain Rain
3:12 PM 36.0 °F 28.5 °F 33.1 °F 89% 29.92 in 2.5 mi NNW 10.4 mph - 0.03 in Rain Rain
3:19 PM 36.0 °F 29.6 °F 33.1 °F 89% 29.92 in 0.8 mi NNW 8.1 mph - 0.04 in Snow Light Snow
3:54 PM 33.1 °F 22.2 °F 30.9 °F 92% 29.94 in 0.8 mi North 17.3 mph - 0.11 in Snow Light Snow
4:54 PM 33.1 °F 23.4 °F 30.9 °F 92% 29.97 in 0.8 mi North 13.8 mph - 0.08 in Snow Light Snow
5:01 PM 33.1 °F 23.9 °F 30.9 °F 92% 29.98 in 0.8 mi North 12.7 mph - 0.00 in Snow Light Snow
5:29 PM 33.1 °F 23.4 °F 30.9 °F 92% 29.99 in 1.0 mi North 13.8 mph - 0.02 in Snow Light Snow
5:54 PM 33.1 °F 21.5 °F 30.0 °F 89% 30.02 in 1.0 mi NNE 19.6 mph 26.5 mph 0.03 in Snow Light Snow
6:14 PM 33.1 °F 22.2 °F 28.9 °F 85% 30.03 in 2.0 mi North 17.3 mph - 0.00 in Snow Light Snow
6:45 PM 33.1 °F 23.0 °F 28.9 °F 85% 30.06 in 5.0 mi North 15.0 mph - 0.00 in Snow Light Snow
6:54 PM 33.1 °F 23.0 °F 28.9 °F 85% 30.08 in 5.0 mi North 15.0 mph - 0.00 in Snow Light Snow
7:54 PM 32.0 °F 22.1 °F 28.0 °F 85% 30.10 in 6.0 mi North 13.8 mph - 0.00 in Snow Light Snow
8:54 PM 32.0 °F 25.6 °F 28.9 °F 88% 30.12 in 8.0 mi NW 6.9 mph - 0.00 in Snow Light Snow
9:54 PM 32.0 °F 25.6 °F 28.9 °F 88% 30.14 in 9.0 mi NNW 6.9 mph - 0.00 in Snow Light Snow
10:54 PM 32.0 °F 24.2 °F 28.9 °F 88% 30.15 in 5.0 mi NNW 9.2 mph - 0.00 in Snow Light Snow
11:54 PM 32.0 °F 24.8 °F 28.9 °F 88% 30.17 in 7.0 mi NNW 8.1 mph - 0.00 in Snow Light Snow